H1 CPF  2 ESA 2024 11 11 10 316 01 galileo225
H2  2407901 7225    59598 2024 11 10 23 59 42 2024 11 15 23 59 42   900 1 1  0 0 0  1
H9
10 0 60627  43182.000000  0      -7855439.600      18747952.798     -21521359.990
10 0 60627  44082.000000  0      -8765751.470      16976161.075     -22614216.465
10 0 60627  44982.000000  0      -9838120.882      15196477.388     -23425956.560
10 0 60627  45882.000000  0     -11062559.928      13444060.089     -23946526.786
10 0 60627  46782.000000  0     -12423349.628      11752148.449     -24169491.384
10 0 60627  47682.000000  0     -13899485.283      10151068.758     -24092110.286
10 0 60627  48582.000000  0     -15465289.041       8667333.962     -23715371.477
10 0 60627  49482.000000  0     -17091170.590       7322864.784     -23043977.466
10 0 60627  50382.000000  0     -18744512.279       6134356.436     -22086286.080
10 0 60627  51282.000000  0     -20390651.106       5112810.543     -20854206.344
10 0 60627  52182.000000  0     -21993927.026       4263246.676     -19363050.725
10 0 60627  53082.000000  0     -23518764.939       3584602.392     -17631345.543
10 0 60627  53982.000000  0     -24930756.685       3069824.738     -15680601.813
10 0 60627  54882.000000  0     -26197709.362       2706150.288     -13535049.288
10 0 60627  55782.000000  0     -27290627.280       2475564.858     -11221336.899
10 0 60627  56682.000000  0     -28184596.947       2355428.494      -8768203.201
10 0 60627  57582.000000  0     -28859547.439       2319246.117      -6206120.828
10 0 60627  58482.000000  0     -29300862.412       2337559.705      -3566919.277
10 0 60627  59382.000000  0     -29499824.563       2378934.035       -883390.630
10 0 60627  60282.000000  0     -29453878.621       2411005.087       1811116.928
10 0 60627  61182.000000  0     -29166704.564       2401558.229       4483112.803
10 0 60627  62082.000000  0     -28648098.703       2319602.316       7099379.742
10 0 60627  62982.000000  0     -27913666.280       2136405.987       9627386.509
10 0 60627  63882.000000  0     -26984335.110       1826463.545      12035692.318
10 0 60627  64782.000000  0     -25885705.450       1368360.038      14294337.987
10 0 60627  65682.000000  0     -24647256.355        745508.260      16375218.932
10 0 60627  66582.000000  0     -23301433.327        -53265.586      18252435.320
10 0 60627  67482.000000  0     -21882645.772      -1033306.115      19902615.021
10 0 60627  68382.000000  0     -20426205.630      -2193896.098      21305205.302
10 0 60627  69282.000000  0     -18967240.363      -3528214.416      22442729.611
10 0 60627  70182.000000  0     -17539614.335      -5023486.157      23301006.244
10 0 60627  71082.000000  0     -16174892.346      -6661320.372      23869326.123
10 0 60627  71982.000000  0     -14901377.762      -8418225.124      24140587.455
10 0 60627  72882.000000  0     -13743255.384     -10266283.886      24111385.538
10 0 60627  73782.000000  0     -12719865.892     -12173972.305      23782056.556
10 0 60627  74682.000000  0     -11845134.621     -14107089.895      23156674.745
10 0 60627  75582.000000  0     -11127172.565     -16029777.628      22243002.902
10 0 60627  76482.000000  0     -10568062.119     -17905589.650      21052396.789
10 0 60627  77382.000000  0     -10163834.287     -19698585.626      19599664.534
10 0 60627  78282.000000  0      -9904638.035     -21374409.531      17902882.738
10 0 60627  79182.000000  0      -9775096.464     -22901321.111      15983171.514
10 0 60627  80082.000000  0      -9754838.544     -24251147.672      13864431.239
10 0 60627  80982.000000  0      -9819189.663     -25400126.351      11573044.287
10 0 60627  81882.000000  0      -9939999.187     -26329610.451       9137545.480
10 0 60627  82782.000000  0     -10086578.907     -27026617.668       6588265.418
10 0 60627  83682.000000  0     -10226722.753     -27484203.029       3956951.199
10 0 60627  84582.000000  0     -10327775.567     -27701644.889       1276369.370
10 0 60627  85482.000000  0     -10357717.179     -27684438.199      -1420103.837
10 0 60627  86382.000000  0     -10286227.572     -27444095.373      -4098899.744
10 0 60628    882.000000  0     -10085699.501     -26997761.128      -6726676.618
10 0 60628   1782.000000  0      -9732166.646     -26367653.536      -9270735.862
10 0 60628   2682.000000  0      -9206118.027     -25580348.998     -11699429.739
10 0 60628   3582.000000  0      -8493173.063     -24665933.733     -13982555.459
10 0 60628   4482.000000  0      -7584596.046     -23657048.558     -16091730.713
10 0 60628   5382.000000  0      -6477633.878     -22587857.038     -18000745.957
10 0 60628   6282.000000  0      -5175666.508     -21492969.452     -19685889.119
10 0 60628   7182.000000  0      -3688165.376     -20406356.333     -21126238.771
10 0 60628   8082.000000  0      -2030461.207     -19360285.630     -22303922.212
10 0 60628   8982.000000  0       -223328.432     -18384316.720     -23204335.414
10 0 60628   9882.000000  0       1707600.739     -17504382.674     -23816322.223
10 0 60628  10782.000000  0       3732574.306     -16741989.362     -24132310.746
10 0 60628  11682.000000  0       5818587.503     -16113556.315     -24148405.385
10 0 60628  12582.000000  0       7930351.863     -15629919.787     -23864433.473
10 0 60628  13482.000000  0      10031336.170     -15296013.404     -23283946.063
10 0 60628  14382.000000  0      12084846.930     -15110736.232     -22414172.908
10 0 60628  15282.000000  0      14055114.795     -15067012.265     -21265932.224
10 0 60628  16182.000000  0      15908353.177     -15152039.384     -19853496.362
10 0 60628  17082.000000  0      17613756.199     -15347719.915     -18194415.016
10 0 60628  17982.000000  0      19144404.940     -15631259.314     -16309298.098
10 0 60628  18882.000000  0      20478053.857     -15975914.211     -14221560.887
10 0 60628  19782.000000  0      21597772.909     -16351866.443     -11957134.530
10 0 60628  20682.000000  0      22492425.413     -16727195.721      -9544145.372
10 0 60628  21582.000000  0      23156966.781     -17068920.519      -7012567.013
10 0 60628  22482.000000  0      23592554.814     -17344074.599      -4393849.303
10 0 60628  23382.000000  0      23806468.136     -17520785.444      -1720528.828
10 0 60628  24282.000000  0      23811835.318     -17569320.811        974174.350
10 0 60628  25182.000000  0      23627183.168     -17463070.539       3656768.713
10 0 60628  26082.000000  0      23275818.311     -17179432.788       6293906.986
10 0 60628  26982.000000  0      22785061.422     -16700576.816       8852800.331
10 0 60628  27882.000000  0      22185358.081     -16014058.260      11301625.909
10 0 60628  28782.000000  0      21509294.123     -15113267.496      13609922.697
10 0 60628  29682.000000  0      20790546.332     -13997696.834      15748970.633
10 0 60628  30582.000000  0      20062801.391     -12673018.011      17692148.358
10 0 60628  31482.000000  0      19358676.997     -11150967.350      19415265.056
10 0 60628  32382.000000  0      18708679.001      -9449041.984      20896862.264
10 0 60628  33282.000000  0      18140227.300      -7590016.456      22118481.868
10 0 60628  34182.000000  0      17676781.094      -5601294.649      23064896.917
10 0 60628  35082.000000  0      17337090.989      -3514117.132      23724302.364
10 0 60628  35982.000000  0      17134601.466      -1362648.582      24088463.329
10 0 60628  36882.000000  0      17077022.540        817026.329      24152818.990
10 0 60628  37782.000000  0      17166084.136       2987967.272      23916540.762
10 0 60628  38682.000000  0      17397480.957       5113469.647      23382543.984
10 0 60628  39582.000000  0      17761009.679       7158148.933      22557452.900
10 0 60628  40482.000000  0      18240894.241       9088984.143      21451519.292
10 0 60628  41382.000000  0      18816289.088      10876287.748      20078495.722
10 0 60628  42282.000000  0      19461944.626      12494571.761      18455464.877
10 0 60628  43182.000000  0      20149014.032      13923282.858      16602627.110
10 0 60628  44082.000000  0      20845976.059      15147383.545      14543048.756
10 0 60628  44982.000000  0      21519644.858      16157761.191      12302374.381
10 0 60628  45882.000000  0      22136235.011      16951452.149       9908506.528
10 0 60628  46782.000000  0      22662448.253      17531674.026       7391257.011
10 0 60628  47682.000000  0      23066547.629      17907665.173       4781974.169
10 0 60628  48582.000000  0      23319385.245      18094336.574       2113150.810
10 0 60628  49482.000000  0      23395351.185      18111747.230       -581982.143
10 0 60628  50382.000000  0      23273213.725      17984419.663      -3269871.119
10 0 60628  51282.000000  0      22936824.333      17740517.252      -5917059.180
10 0 60628  52182.000000  0      22375665.304      17410909.432      -8490603.756
10 0 60628  53082.000000  0      21585222.777      17028154.278     -10958487.541
10 0 60628  53982.000000  0      20567173.469      16625430.616     -13290017.345
10 0 60628  54882.000000  0      19329379.280      16235453.317     -15456205.883
10 0 60628  55782.000000  0      17885690.006      15889405.908     -17430131.762
10 0 60628  56682.000000  0      16255560.393      15615924.064     -19187273.194
10 0 60628  57582.000000  0      14463493.603      15440161.873     -20705811.365
10 0 60628  58482.000000  0      12538328.552      15382970.122     -21966899.791
10 0 60628  59382.000000  0      10512393.443      15460212.293     -22954896.424
10 0 60628  60282.000000  0       8420551.956      15682239.623     -23657555.795
10 0 60628  61182.000000  0       6299171.877      16053541.565     -24066178.927
10 0 60628  62082.000000  0       4185048.275      16572582.493     -24175719.321
10 0 60628  62982.000000  0       2114314.773      17231829.690     -23984843.827
10 0 60628  63882.000000  0        121376.725      18017971.673     -23495947.745
99